Fallon, NV

8:42 AM PDT on August 28, 2016 (GMT -0700)
Fallon Naval Air Station

Weather History for KNFL - November, 2011

Change the Weather History Date:

Tuesday, November 29, 2011

  Actual Average Record
Temperature  
Mean Temperature 37 °F -  
Max Temperature 55 °F 49 °F 71 °F (1980)
Min Temperature 19 °F 21 °F 5 °F (2004)
Degree Days  
Heating Degree Days 28    
Moisture  
Dew Point 17 °F    
Average Humidity 52    
Maximum Humidity 71    
Minimum Humidity 28    
Precipitation  
Precipitation 0.00 in - - ()
Sea Level Pressure  
Sea Level Pressure 30.18 in    
Wind  
Wind Speed 2 mph (SE)    
Max Wind Speed 9 mph    
Max Gust Speed -    
Visibility 10 miles    
Events      
Averages and records for this station are not official NWS values.
T = Trace of Precipitation, MM = Missing Value Source: NWS Daily Summary

Daily Weather History Graph

Daily Weather History Graph

Search for Another Location

Airport or City:

Trip Planner

Search our weather history database for the weather conditions in past years. The results will help you decide how hot, cold, wet, or windy it might be!

Date:

Astronomy

Nov. 29, 2011 Rise Set
Actual Time 6:53 AM PST 4:32 PM PST
Civil Twilight 6:24 AM PST 5:01 PM PST
Nautical Twilight 5:50 AM PST 5:35 PM PST
Astronomical Twilight 5:18 AM PST 6:07 PM PST
Moon 10:43 AM PST (11/29) 9:30 PM PST (11/29)
Length of Visible Light 10h 37m
Length of Day
9h 38m
Waxing Crescent, 25% of the Moon is Illuminated
Nov 29
Waxing Crescent
Dec 2
First Quarter
Dec 10
Full
Dec 17
Last Quarter
Dec 24
New

Hourly Weather History & Observations

Time (PST) Temp. Windchill Dew Point Humidity Pressure Visibility Wind Dir Wind Speed Gust Speed Precip Events Conditions
12:56 AM 26.1 °F - 15.1 °F 63% 30.22 in 10.0 mi Calm Calm - N/A   Clear
1:56 AM 25.0 °F 20.7 °F 12.9 °F 60% 30.22 in 10.0 mi SE 3.5 mph - N/A   Clear
2:56 AM 24.1 °F 19.7 °F 12.0 °F 60% 30.22 in 10.0 mi SSW 3.5 mph - N/A   Clear
3:56 AM 21.0 °F - 12.9 °F 71% 30.21 in 10.0 mi Calm Calm - N/A   Clear
4:56 AM 21.0 °F - 12.9 °F 71% 30.22 in 10.0 mi Calm Calm - N/A   Clear
5:56 AM 21.9 °F - 12.9 °F 68% 30.22 in 10.0 mi Calm Calm - N/A   Clear
6:21 AM 21.2 °F - 12.2 °F 68% 30.34 in 10.0 mi Calm Calm - N/A   Partly Cloudy
6:56 AM 19.9 °F - 10.0 °F 65% 30.23 in 8.0 mi Calm Calm - N/A   Partly Cloudy
7:56 AM 27.0 °F 23.0 °F 17.1 °F 66% 30.23 in 10.0 mi SSE 3.5 mph - N/A   Partly Cloudy
8:56 AM 36.0 °F - 19.9 °F 52% 30.23 in 10.0 mi Calm Calm - N/A   Partly Cloudy
9:56 AM 41.0 °F - 24.1 °F 51% 30.23 in 10.0 mi Calm Calm - N/A   Partly Cloudy
10:56 AM 46.0 °F 43.9 °F 25.0 °F 44% 30.21 in 10.0 mi West 4.6 mph - N/A   Partly Cloudy
11:56 AM 52.0 °F - 23.0 °F 32% 30.18 in 10.0 mi ENE 4.6 mph - N/A   Partly Cloudy
12:56 PM 52.0 °F - 23.0 °F 32% 30.17 in 10.0 mi Variable 3.5 mph - N/A   Partly Cloudy
1:56 PM 55.0 °F - 23.0 °F 29% 30.15 in 10.0 mi NNE 8.1 mph - N/A   Partly Cloudy
2:56 PM 55.0 °F - 21.9 °F 28% 30.14 in 10.0 mi NE 3.5 mph - N/A   Partly Cloudy
3:56 PM 53.1 °F - 21.0 °F 29% 30.12 in 10.0 mi Calm Calm - N/A   Partly Cloudy
4:56 PM 46.9 °F - 19.9 °F 34% 30.11 in 10.0 mi Calm Calm - N/A   Partly Cloudy
5:56 PM 41.0 °F - 19.0 °F 41% 30.12 in 10.0 mi Calm Calm - N/A   Partly Cloudy
6:56 PM 35.1 °F - 19.0 °F 52% 30.11 in 10.0 mi Calm Calm - N/A   Clear
7:56 PM 32.0 °F - 14.0 °F 48% 30.13 in 10.0 mi Calm Calm - N/A   Clear
8:56 PM 30.0 °F 23.2 °F 16.0 °F 56% 30.12 in 10.0 mi SSE 6.9 mph - N/A   Partly Cloudy
9:56 PM 30.9 °F 23.5 °F 19.0 °F 61% 30.10 in 10.0 mi South 8.1 mph - N/A   Partly Cloudy
10:56 PM 28.9 °F 20.4 °F 14.0 °F 54% 30.09 in 10.0 mi SE 9.2 mph - N/A   Clear
11:56 PM 28.9 °F 21.1 °F 15.1 °F 56% 30.07 in 10.0 mi SSE 8.1 mph - N/A   Clear